格洛纳斯M-742 COSMOS 2474 [GLONASS-M]

导读 | 星芒AI

COSMOS 2474(GLONASS-M)是俄罗斯GLONASS卫星导航系统的一部分,于2013年1月由联盟号火箭发射。该卫星属于GLONASS-M系列,旨在提供高精度的全球定位和导航服务。它运行在中地球轨道,设计寿命约7年,配备现代化的导航信号和改进的原子钟,以提升系统稳定性和精度。COSMOS 2474的加入增强了GLONASS系统的覆盖能力与可靠性,支持俄罗斯及全球用户的定位、导航和时间同步需求。

基本信息
目录编号:
37829
目录名称:
COSMOS 2474 (GLONASS)
国际标识:
2011-055A
轨道中心:
EARTH
卫星名称:
格洛纳斯M-742
卫星全名:
格洛纳斯M-742 COSMOS 2474 [GLONASS-M]
卫星状态:
在轨 (已飞行5144 天)
发射日期:
2011-10-02 UTC
国别 :
俄罗斯(独联体) (CIS)
星等 :
--
轨道信息
数据来源 国际轨道数据 AOE轨道数据
星历时间 2025-10-31T20:21:16+0800
20小时前
查看轨道信息
2025-10-28T01:00:00+0800
4天前
查看轨道信息
半长轴 25508.097km 25508.089km
偏心率 0.0010788 0.001076
轨道倾角 65.159° 65.157°
近地点辐角 239.891° 239.678°
升交点赤经 80.606° 80.735°
平近点角 127.177° 87.241°
近地点 19102.443km 19102.507km
远地点 19157.481km 19157.401km
周期 675.736分钟 675.735分钟
每日圈数 2.131011 2.131012
详细信息
平衡模式:
三轴稳定
覆盖范围:
全球
运营商:
列舍特涅夫卫星信息系统
运营商所在国:
俄罗斯
制造商(研发单位):
列舍特涅夫卫星信息系统
制造商所在国:
俄罗斯
使用方式:
暂无
卫星简介
格洛纳斯(GLONASS )是苏联/俄罗斯研制卫星导航系统。标准配置为24颗卫星,其中18颗卫星就能保证该系统为俄罗斯境内用户提供全部服务。该卫星已退役。
2D轨道图
3D轨道图
轨道高度分析图
轨道倾角分析图
轨道综合分析图
查看轨道综合分析图